[[{"header":{"parameterUnit":"m.s-1","parameterCategory":1,"la1":30.2991,"la2":30.254,"lo1":-89.0895,"lo2":-89.0444,"dy":0.0017,"dx":0.0017,"nx":28,"ny":28,"refTime":"2025-03-26T21:00:00:Z","depth":0,"parameterNumber":2,"parameterNumberName":"U-component_of_WINDS"},"data":[0,0,0,0,0,0,0,0,0,0,0,0,0,0,0,0,0,0,0,0,0,0,0,0,0,0,0,0,0,0,0,0,0,0,0,0,0,0,0,0,0,0,0,0,0,0,0,0,0,0,0,0,0,0,0,0,0,0,-4.9007,-4.9009,0,-4.9151,-4.9153,-4.9154,-4.9208,-4.9208,-4.9207,-4.9207,-4.9352,-4.9356,-4.9361,0,0,0,0,0,0,0,0,0,0,0,0,0,-4.8779,-4.8783,-4.9007,-4.9009,-4.9011,-4.9151,-4.9153,-4.9155,-4.9208,-4.9208,-4.9207,-4.9207,-4.9351,-4.9356,-4.9361,0,0,0,0,0,0,0,0,0,0,0,0,0,-4.8896,-4.8784,-4.9007,-4.9054,-4.906,-4.915,-4.9153,-4.9155,-4.9209,-4.9208,-4.9207,-4.9207,-4.9349,-4.9355,-4.9362,-4.9414,0,0,-4.9381,-4.9384,0,0,0,0,0,0,0,0,-4.8889,-4.8904,-4.9046,-4.9051,-4.9058,-4.9161,-4.9126,-4.9242,-4.9209,-4.9152,-4.9207,-4.9206,-4.9289,-4.93,-4.9329,-4.9421,-4.9427,-4.9382,-4.9386,-4.9389,-4.939,0,0,0,0,0,0,0,-4.8881,-4.8898,-4.9064,-4.9048,-4.9055,-4.9069,-4.9085,-4.9148,-4.9222,-4.9157,-4.9161,-4.9178,-4.9292,-4.9322,-4.9333,-4.943,-4.9382,-4.9387,-4.9391,-4.9394,-4.9576,-4.9577,0,0,0,0,0,0,-4.8865,-4.8891,-4.9059,-4.9068,-4.897,-4.9073,-4.9091,-4.9129,-4.9222,-4.9236,-4.9178,-4.918,-4.9312,-4.9325,-4.9338,-4.9407,-4.9388,-4.9394,-4.9398,-4.9575,-4.9576,-4.9577,0,0,0,0,0,0,-4.886,-4.888,-4.9054,-4.8981,-4.9004,-4.9078,-4.912,-4.9132,-4.9162,-4.9238,-4.9251,-4.9195,-4.9312,-4.9329,-4.9396,-4.9413,-4.9397,-4.9403,-4.9574,-4.9576,-4.9577,-4.9545,0,0,0,0,0,0,-4.8853,-4.8878,-4.8898,-4.8981,-4.9008,-4.9109,-4.9121,-4.9135,-4.9173,-4.9177,-4.9258,-4.927,-4.9313,-4.9386,-4.9402,-4.9422,-4.9408,-4.9573,-4.9575,-4.9576,-4.9545,-4.9546,-4.9546,0,0,0,0,0,-4.8845,-4.8882,-4.8899,-4.8919,-4.9035,-4.911,-4.9125,-4.9173,-4.9174,-4.9196,-4.9245,-4.9268,-4.9409,-4.9392,-4.9411,-4.9433,-4.9572,-4.9574,-4.9576,-4.9545,-4.9546,-4.9546,0,0,0,0,0,0,-4.8797,-4.8894,-4.8913,-4.8978,-4.9036,-4.9119,-4.9147,-4.9172,-4.9229,-4.923,-4.9288,-4.9306,-4.9368,-4.9408,-4.9387,-4.949,-4.9492,-4.9498,-4.9462,-4.9463,-4.9463,-4.9452,-4.9414,0,0,0,0,0,-4.8794,-4.8847,-4.8929,-4.8978,-4.9007,-4.9072,-4.9106,-4.9139,-4.92,-4.9224,-4.9278,-4.9337,-4.9395,-4.9431,-4.9489,-4.9552,-4.9571,-4.9577,-4.9577,-4.9577,-4.9581,-4.9619,-4.9623,-4.9585,-4.9585,-4.9585,0,0,-4.8788,-4.8848,-4.8877,-4.897,-4.9019,-4.9072,-4.9091,-4.9147,-4.9187,-4.9232,-4.9299,-4.9342,-4.9411,-4.9477,-4.9509,-4.9512,-4.9596,-4.958,-4.9579,-4.9583,-4.9622,-4.9626,-4.9629,-4.9586,-4.9586,-4.9586,0,0,-4.8806,-4.8856,-4.8904,-4.8952,-4.9026,-4.907,-4.9082,-4.9162,-4.9192,-4.9261,-4.9297,-4.9346,-4.9444,-4.9493,-4.953,-4.957,-4.9593,-4.9587,-4.9589,-4.9625,-4.9628,-4.9631,-4.9646,-4.9651,-4.9592,-4.9591,-4.9591,0,-4.8789,-4.8871,-4.8925,-4.8979,-4.902,-4.9066,-4.9115,-4.916,-4.9248,-4.9275,-4.9277,-4.9404,-4.9453,-4.9532,-4.9542,-4.9571,-4.9587,-4.9577,-4.9624,-4.9627,-4.9631,-4.9646,-4.9651,-4.959,-4.959,-4.9591,-4.9591,0,-4.8848,-4.8904,-4.8934,-4.902,-4.9064,-4.9116,-4.9178,-4.9216,-4.9247,-4.929,-4.9361,-4.9423,-4.9495,-4.9517,-4.9545,-4.9601,-4.96,-4.9613,-4.9615,-4.9632,-4.9647,-4.9653,-4.9588,-4.9589,-4.9589,-4.959,0,0,-4.8835,-4.8953,-4.8963,-4.9003,-4.909,-4.9135,-4.919,-4.9261,-4.9294,-4.9354,-4.9402,-4.9486,-4.9499,-4.9541,-4.9577,-4.961,-4.9639,-4.9619,-4.9621,-4.962,-4.9705,-4.9694,-4.9699,-4.9656,-4.9657,-4.9658,-4.9699,0,-4.8864,-4.8963,-4.9015,-4.9093,-4.9147,-4.9193,-4.9242,-4.93,-4.9343,-4.9396,-4.9444,-4.9503,-4.9516,-4.9542,-4.9576,-4.9628,-4.9656,-4.9626,-4.9701,-4.9703,-4.9681,-4.9707,-4.9696,-4.9731,-4.9705,-4.9706,-4.9707,0,-4.8909,-4.8971,-4.9054,-4.9137,-4.9162,-4.9204,-4.9275,-4.9325,-4.9393,-4.9423,-4.9473,-4.9508,-4.9569,-4.9569,-4.9654,-4.9632,-4.9666,-4.9697,-4.9699,-4.9707,-4.9704,-4.9715,-4.9743,-4.9748,-4.9716,-4.9716,-4.9715,0,-4.8892,-4.8996,-4.9061,-4.9094,-4.9192,-4.9221,-4.9263,-4.9331,-4.9371,-4.9434,-4.9461,-4.953,-4.9567,-4.9619,-4.9673,-4.9668,-4.9753,-4.9757,-4.9779,-4.9778,-4.9793,-4.9791,-4.9826,-4.9817,-4.9817,-4.9817,-4.9817,0,-4.8918,-4.8968,-4.9055,-4.9094,-4.9151,-4.9211,-4.9266,-4.9312,-4.9373,-4.9422,-4.9467,-4.9512,-4.9581,-4.9636,-4.9679,-4.9743,-4.9759,-4.9785,-4.9796,-4.9781,-4.9777,-4.9803,-4.9801,-4.9818,-4.9818,-4.9818,-4.9817,0,-4.8908,-4.8968,-4.9041,-4.9129,-4.9153,-4.9191,-4.9267,-4.9307,-4.9355,-4.9417,-4.9435,-4.9509,-4.9576,-4.9635,-4.9723,-4.9752,-4.9818,-4.9831,-4.9795,-4.98,-4.9819,-4.9816,-4.9871,-4.9881,-4.9865,-4.9865,-4.9865,0,-4.892,-4.896,-4.9053,-4.909,-4.9131,-4.919,-4.9232,-4.9294,-4.9336,-4.9419,-4.945,-4.952,-4.9579,-4.9684,-4.9746,-4.9814,-4.9829,-4.9844,-4.984,-4.9824,-4.983,-4.9826,-4.9831,-4.9843,-4.9843,-4.9843,-4.9843,0,-4.8935,-4.8964,-4.9024,-4.9095,-4.9145,-4.9203,-4.9263,-4.9291,-4.9364,-4.9409,-4.9479,-4.9525,-4.9617,-4.9686,-4.9762,-4.9806,-4.9837,-4.9844,-4.9853,-4.9837,-4.9814,-4.9827,-4.9793,-4.9842,-4.9842,-4.9842,-4.9842,-4.9842,-4.8937,-4.8975,-4.9047,-4.9113,-4.9165,-4.9221,-4.9264,-4.9317,-4.9376,-4.9456,-4.9489,-4.956,-4.963,-4.9735,-4.978,-4.9836,-4.9842,-4.9854,-4.9857,-4.9859,-4.9857,-4.9806,-4.9851,-4.9851,-4.9851,-4.9851,-4.9851,0,-4.8955,-4.9004,-4.9064,-4.9148,-4.92,-4.9226,-4.9294,-4.9336,-4.9398,-4.9461,-4.952,-4.9601,-4.9669,-4.9737,-4.981,-4.9842,-4.9858,-4.9859,-4.9857,-4.9867,-4.9848,-4.9833,-4.9845,-4.9845,-4.9845,-4.9845,-4.9845,-4.9845,-4.897,-4.9036,-4.9074,-4.9167,-4.9216,-4.9287,-4.9324,-4.9376,-4.9427,-4.9515,-4.9573,-4.9617,-4.9683,-4.9761,-4.9826,-4.9845,-4.9869,-4.9866,-4.9888,-4.9868,-4.9868,-4.9868,-4.9854,-4.9871,-4.9871,-4.9903,-4.9903,-4.9903]},{"header":{"parameterUnit":"m.s-1","parameterCategory":1,"la1":30.2991,"la2":30.254,"lo1":-89.0895,"lo2":-89.0444,"dy":0.0017,"dx":0.0017,"nx":28,"ny":28,"refTime":"2025-03-26T21:00:00:Z","depth":0,"parameterNumber":3,"parameterNumberName":"V-component_of_WINDS"},"data":[0,0,0,0,0,0,0,0,0,0,0,0,0,0,0,0,0,0,0,0,0,0,0,0,0,0,0,0,0,0,0,0,0,0,0,0,0,0,0,0,0,0,0,0,0,0,0,0,0,0,0,0,0,0,0,0,0,0,5.1821,5.1822,0,5.186,5.186,5.1861,5.1898,5.1899,5.1899,5.19,5.1934,5.1934,5.1935,0,0,0,0,0,0,0,0,0,0,0,0,0,5.1778,5.1779,5.1821,5.1822,5.1822,5.186,5.186,5.1861,5.1898,5.1899,5.1899,5.19,5.1934,5.1934,5.1935,0,0,0,0,0,0,0,0,0,0,0,0,0,5.1805,5.1779,5.1821,5.1846,5.1848,5.186,5.186,5.1861,5.1898,5.1899,5.1899,5.19,5.1934,5.1934,5.1935,5.1924,0,0,5.1937,5.1937,0,0,0,0,0,0,0,0,5.1803,5.1806,5.1841,5.1844,5.1847,5.1875,5.1858,5.1882,5.1898,5.1879,5.19,5.19,5.1913,5.1916,5.1921,5.1926,5.1927,5.1937,5.1938,5.1938,5.1938,0,0,0,0,0,0,0,5.1801,5.1805,5.1836,5.1842,5.1845,5.1854,5.1859,5.1863,5.1891,5.188,5.1883,5.1888,5.1915,5.1921,5.1922,5.1928,5.1937,5.1938,5.1938,5.1938,5.193,5.1929,0,0,0,0,0,0,5.1796,5.1803,5.1835,5.1838,5.1827,5.1854,5.1859,5.1865,5.1891,5.1896,5.1887,5.1889,5.1919,5.1921,5.1924,5.1916,5.1938,5.1938,5.1939,5.193,5.193,5.1929,0,0,0,0,0,0,5.1795,5.1799,5.1834,5.1821,5.1826,5.1854,5.186,5.1865,5.1871,5.1896,5.1901,5.1887,5.192,5.1923,5.1925,5.1917,5.1939,5.1939,5.1931,5.193,5.1929,5.1897,0,0,0,0,0,0,5.1794,5.1798,5.1794,5.1821,5.1827,5.1835,5.186,5.1866,5.1873,5.1876,5.1898,5.1902,5.192,5.1924,5.1926,5.1919,5.194,5.1932,5.1931,5.193,5.1899,5.1896,5.1892,0,0,0,0,0,5.1792,5.1782,5.1794,5.1798,5.1823,5.1834,5.1838,5.186,5.1872,5.1869,5.1886,5.1902,5.1918,5.1924,5.1926,5.1919,5.1932,5.1931,5.193,5.1901,5.1896,5.1892,0,0,0,0,0,0,5.1751,5.1786,5.1799,5.1798,5.1813,5.1841,5.1837,5.1854,5.1864,5.1867,5.1893,5.1898,5.1898,5.1908,5.1914,5.1912,5.1928,5.1927,5.1905,5.1901,5.1897,5.1895,5.1941,0,0,0,0,0,5.1742,5.175,5.1779,5.1775,5.1782,5.1808,5.1814,5.183,5.1846,5.1852,5.1869,5.1883,5.1892,5.1897,5.1906,5.1901,5.1908,5.1898,5.1894,5.1891,5.189,5.1892,5.1888,5.1924,5.1924,5.1924,0,0,5.1723,5.1743,5.1746,5.1767,5.1781,5.1788,5.1813,5.1818,5.1824,5.1853,5.1857,5.187,5.1888,5.1888,5.1888,5.1897,5.1882,5.1889,5.1887,5.1887,5.189,5.1886,5.1883,5.1923,5.1923,5.1923,0,0,5.1693,5.1708,5.1708,5.1722,5.1744,5.1762,5.1762,5.1788,5.1799,5.1804,5.1827,5.1834,5.1847,5.186,5.1868,5.1847,5.1863,5.1849,5.183,5.1832,5.1829,5.1826,5.1821,5.1818,5.1848,5.1848,5.1848,0,5.1666,5.1678,5.1705,5.1711,5.172,5.175,5.175,5.1762,5.1785,5.1791,5.18,5.1821,5.1834,5.1839,5.1835,5.184,5.1841,5.1846,5.1827,5.1825,5.1823,5.1818,5.1816,5.1846,5.1846,5.1846,5.1846,0,5.1646,5.1654,5.1651,5.1676,5.1685,5.1688,5.1715,5.1721,5.1738,5.1755,5.1761,5.1779,5.1794,5.1797,5.1811,5.1804,5.1809,5.1823,5.1839,5.1818,5.1814,5.1812,5.1843,5.1844,5.1845,5.1845,0,0,5.1588,5.1631,5.1629,5.1643,5.1671,5.1677,5.1682,5.1699,5.1705,5.172,5.1726,5.1739,5.1753,5.1762,5.1779,5.178,5.1765,5.1793,5.1794,5.1789,5.1761,5.1752,5.1749,5.1776,5.1776,5.1776,5.176,0,5.1563,5.1576,5.1602,5.1606,5.1615,5.1645,5.165,5.1667,5.1684,5.1694,5.1712,5.1722,5.1739,5.1745,5.1747,5.1766,5.176,5.1767,5.1782,5.1782,5.1777,5.1747,5.1736,5.1721,5.1759,5.1758,5.1758,0,5.1536,5.1553,5.1559,5.159,5.1595,5.1598,5.1618,5.1627,5.1649,5.1661,5.1674,5.1694,5.1701,5.1716,5.1728,5.1732,5.174,5.175,5.175,5.1753,5.1769,5.1749,5.1716,5.1714,5.1756,5.1756,5.1756,0,5.1496,5.152,5.1528,5.1538,5.1573,5.1576,5.1591,5.1613,5.1623,5.164,5.1647,5.1663,5.1672,5.1684,5.1709,5.1717,5.1718,5.1734,5.1729,5.1729,5.1728,5.1727,5.1696,5.1731,5.1731,5.1731,5.1731,0,5.1466,5.1469,5.1511,5.1516,5.152,5.155,5.1554,5.1571,5.1592,5.1601,5.1626,5.1634,5.1665,5.1676,5.1694,5.1703,5.1706,5.1716,5.1722,5.1715,5.1714,5.172,5.1722,5.173,5.173,5.1731,5.1731,0,5.1422,5.145,5.1461,5.1496,5.1505,5.1507,5.1536,5.1542,5.1562,5.1573,5.1577,5.1608,5.1623,5.1648,5.1669,5.1682,5.1687,5.1695,5.168,5.1684,5.1677,5.1678,5.165,5.1648,5.1683,5.1682,5.1682,0,5.1402,5.1405,5.1442,5.1451,5.1465,5.1479,5.149,5.152,5.1531,5.1558,5.1561,5.1579,5.1594,5.1617,5.164,5.1658,5.1667,5.1656,5.1669,5.1664,5.1669,5.1669,5.167,5.1653,5.1652,5.1652,5.1651,0,5.1364,5.1379,5.1395,5.1417,5.143,5.1448,5.1467,5.1473,5.1508,5.1518,5.1535,5.1548,5.1572,5.1589,5.1611,5.1626,5.1645,5.1647,5.1647,5.1641,5.1633,5.1639,5.1673,5.1648,5.1648,5.1648,5.1648,5.1649,5.1332,5.1338,5.1366,5.1383,5.1402,5.142,5.1429,5.1452,5.1467,5.149,5.1507,5.1523,5.1548,5.1579,5.1593,5.1606,5.1615,5.1614,5.1614,5.1614,5.1612,5.1631,5.161,5.161,5.161,5.161,5.161,0,5.1297,5.1317,5.1333,5.1362,5.1376,5.1395,5.1418,5.1429,5.1444,5.1466,5.1482,5.1503,5.1521,5.1548,5.1568,5.1574,5.1583,5.1578,5.1578,5.1582,5.1602,5.1601,5.157,5.157,5.157,5.157,5.157,5.157,5.128,5.1292,5.1311,5.1333,5.1353,5.1371,5.1383,5.14,5.1418,5.1441,5.1458,5.1476,5.15,5.1523,5.1541,5.1548,5.1555,5.1547,5.1558,5.1576,5.158,5.1583,5.1583,5.1548,5.1548,5.1536,5.1536,5.1536]}]]